sat.trackr.live / text

‹ back to catalog

PRSS-1

NORAD 43530 · 2018-056B

PAYLOAD ACTIVE UNKNOWN

§ Identity

Operator
Country
PAKI
Launch date
2018-07-09
Launch site
JSC
Launch vehicle
Mass (kg)
RCS (m²)

External: N2YO · Heavens-Above · Gunter

§ Orbital elements

Epoch: 2026-09-13T03:54:09.961920Z

Period
97.16 min
Inclination
97.7746°
Eccentricity
0.0001826
Mean motion
14.82100272 rev/d
Perigee alt
621.4 km
Apogee alt
624.0 km
Semi-major
7,000.8 km
B*
1.1879e-4
RAAN
321.5643°
Arg perigee
84.1071°
Mean anomaly
276.0350°
Rev number
44,146

§ Raw data

PRSS-11 43530U 18056B   26256.16261530  .00000894  00000+0  11879-3 0  99992 43530  97.7746 321.5643 0001826  84.1071 276.0350 14.82100272441468

JSON: /api/v1/satellites/43530 · /tle

For live sub-satellite position, see the globe view (requires WebGL).

§ Visibility from observer

Set your observer location to see the next 7 days of passes ≥ 10°. The values pass through the URL so the page stays shareable.

No JS? Fill the form by hand. The geolocation button needs JavaScript.

§ Radio — SatNOGS DB

ModeDescriptionDownlinkUplink
FM S-band telemetry 2.275 GHz

1 transmitter · refreshed weekly from db.satnogs.org